Zurück zum Katalog

COSMOS 1011

AktivMilitärPO
NORAD 10917·PAYLOAD·🇷🇺 Russia

Gestartet May 23, 1978 von Plesetsk Cosmodrome

Loading…

Nächste Überflüge (nächste 24 Stunden)

TLE

AktuellSource: Space-Track

Epoche: Sep 14, 2026, 07:05 UTC

1 10917U 78053A   26257.29534690  .00000050  00000-0  35500-4 0  9993
2 10917  82.9215  11.8952 0037871  73.0298 316.1632 13.75532079424181

Verfolge COSMOS 1011 in Echtzeit mit AllMySat

Download on the App Store